Time,TemperatureF,DewpointF,PressureIn,WindDirection,WindDirectionDegrees,WindSpeedMPH,WindSpeedGustMPH,Humidity,HourlyPrecipIn,Conditions,Clouds,dailyrainin,SoftwareType,DateUTC
2013-01-08 00:04:00,75.4,63.7,30.06,NE,52,2.7,4.9,67,0.00,,SCT120,0.00,VWS V14.01,2013-01-08 04:04:00,
2013-01-08 00:09:00,75.4,63.7,30.06,SE,127,0.0,4.9,67,0.00,,SCT120,0.00,VWS V14.01,2013-01-08 04:09:00,
2013-01-08 00:14:00,75.2,63.5,30.06,SE,140,0.0,4.9,67,0.00,,SCT120,0.00,VWS V14.01,2013-01-08 04:14:00,
2013-01-08 00:19:00,75.2,63.5,30.06,SE,140,0.0,4.9,67,0.00,,SCT120,0.00,VWS V14.01,2013-01-08 04:19:00,
2013-01-08 00:24:00,75.2,63.5,30.06,SSE,150,0.0,3.6,67,0.00,,SCT120,0.00,VWS V14.01,2013-01-08 04:24:00,
2013-01-08 00:29:00,75.2,63.5,30.06,SSE,150,0.0,3.6,67,0.00,,SCT120,0.00,VWS V14.01,2013-01-08 04:29:00,
2013-01-08 00:34:00,75.0,63.3,30.06,SSE,150,0.0,3.6,67,0.00,,SCT120,0.00,VWS V14.01,2013-01-08 04:34:00,
2013-01-08 00:39:00,74.7,63.0,30.06,SSE,150,0.0,3.6,67,0.00,,SCT120,0.00,VWS V14.01,2013-01-08 04:39:00,
2013-01-08 00:44:00,74.5,62.8,30.06,SSE,149,0.0,0.0,67,0.00,,SCT120,0.00,VWS V14.01,2013-01-08 04:44:00,
2013-01-08 00:49:00,74.1,62.5,30.06,SSE,150,0.0,0.0,67,0.00,,SCT120,0.00,VWS V14.01,2013-01-08 04:49:00,
2013-01-08 00:54:00,73.8,62.5,30.06,SSE,150,0.0,0.0,68,0.00,,SCT120,0.00,VWS V14.01,2013-01-08 04:54:00,
2013-01-08 00:59:00,73.8,63.0,30.06,SSE,150,0.0,0.0,69,0.00,,SCT120,0.00,VWS V14.01,2013-01-08 04:59:00,
2013-01-08 01:00:00,73.8,63.0,30.06,SSE,150,0.0,0.0,69,0.00,,SCT120,0.00,VWS V14.01,2013-01-08 05:00:00,
2013-01-08 01:01:00,73.8,63.0,30.06,SSE,150,0.0,0.0,69,0.00,,SCT120,0.00,VWS V14.01,2013-01-08 05:01:00,
2013-01-08 01:02:00,73.8,63.0,30.06,SSE,150,0.0,0.0,69,0.00,,SCT120,0.00,VWS V14.01,2013-01-08 05:02:00,
2013-01-08 01:07:00,73.8,63.0,30.06,SSE,150,0.0,0.0,69,0.00,,SCT120,0.00,VWS V14.01,2013-01-08 05:07:00,
2013-01-08 01:12:00,73.6,62.8,30.06,SSE,150,0.0,0.0,69,0.00,,SCT120,0.00,VWS V14.01,2013-01-08 05:12:00,
2013-01-08 01:17:00,73.6,63.2,30.06,SSW,192,2.2,2.7,70,0.00,,SCT120,0.00,VWS V14.01,2013-01-08 05:17:00,
2013-01-08 01:22:00,73.6,63.2,30.06,SSW,193,0.0,0.0,70,0.00,,SCT120,0.00,VWS V14.01,2013-01-08 05:22:00,
2013-01-08 01:27:00,73.4,63.0,30.06,SSW,192,0.0,0.0,70,0.00,,SCT120,0.00,VWS V14.01,2013-01-08 05:27:00,
2013-01-08 01:32:00,73.0,62.7,30.06,SSW,192,0.0,0.0,70,0.00,,SCT120,0.00,VWS V14.01,2013-01-08 05:32:00,
2013-01-08 01:37:00,72.9,62.9,30.06,SSW,193,0.0,0.0,71,0.00,,SCT120,0.00,VWS V14.01,2013-01-08 05:37:00,
2013-01-08 01:42:00,72.7,62.7,30.06,SSW,193,0.0,0.0,71,0.00,,SCT120,0.00,VWS V14.01,2013-01-08 05:42:00,
2013-01-08 01:47:00,72.5,63.4,30.06,SSW,193,0.0,0.0,73,0.00,,SCT120,0.00,VWS V14.01,2013-01-08 05:47:00,
2013-01-08 01:52:00,72.5,63.8,30.06,SSW,193,0.0,0.0,74,0.00,,SCT120,0.00,VWS V14.01,2013-01-08 05:52:00,
2013-01-08 01:57:00,72.5,63.8,30.06,SSW,192,0.0,0.0,74,0.00,,SCT120,0.00,VWS V14.01,2013-01-08 05:57:00,
2013-01-08 02:02:00,72.3,64.0,30.06,SSW,193,0.0,0.0,75,0.00,,SCT120,0.00,VWS V14.01,2013-01-08 06:02:00,
2013-01-08 02:07:00,72.5,64.1,30.06,SSW,193,0.0,0.0,75,0.00,,SCT120,0.00,VWS V14.01,2013-01-08 06:07:00,
2013-01-08 02:12:00,72.7,64.3,30.06,SSW,193,0.0,0.0,75,0.00,,SCT120,0.00,VWS V14.01,2013-01-08 06:12:00,
2013-01-08 02:17:00,72.5,64.1,30.06,SSW,193,0.0,0.0,75,0.00,,SCT120,0.00,VWS V14.01,2013-01-08 06:17:00,
2013-01-08 02:22:00,72.5,63.8,30.06,SSW,193,0.0,0.0,74,0.00,,SCT120,0.00,VWS V14.01,2013-01-08 06:22:00,
2013-01-08 02:27:00,72.3,63.6,30.06,SSW,192,0.0,0.0,74,0.00,,SCT120,0.00,VWS V14.01,2013-01-08 06:27:00,
2013-01-08 02:32:00,72.0,63.2,30.06,SSW,193,0.0,0.0,74,0.00,,SCT120,0.00,VWS V14.01,2013-01-08 06:32:00,
2013-01-08 02:37:00,72.0,63.2,30.06,SSW,193,0.0,0.0,74,0.00,,SCT120,0.00,VWS V14.01,2013-01-08 06:37:00,
2013-01-08 02:42:00,72.0,63.6,30.06,SSW,193,0.0,0.0,75,0.00,,SCT120,0.00,VWS V14.01,2013-01-08 06:42:00,
2013-01-08 02:47:00,72.0,63.6,30.06,SSW,192,0.0,0.0,75,0.00,,SCT120,0.00,VWS V14.01,2013-01-08 06:47:00,
2013-01-08 02:52:00,72.0,63.6,30.06,SSW,193,0.0,0.0,75,0.00,,SCT120,0.00,VWS V14.01,2013-01-08 06:52:00,
2013-01-08 02:57:00,72.0,63.6,30.06,SSW,193,0.0,0.0,75,0.00,,SCT120,0.00,VWS V14.01,2013-01-08 06:57:00,
2013-01-08 03:02:00,72.0,63.6,30.06,SSW,192,0.0,0.0,75,0.00,,SCT120,0.00,VWS V14.01,2013-01-08 07:02:00,
2013-01-08 03:07:00,72.1,63.8,30.03,SSW,193,0.0,0.0,75,0.00,,SCT120,0.00,VWS V14.01,2013-01-08 07:07:00,
2013-01-08 03:12:00,72.1,63.8,30.03,SSW,193,0.0,0.0,75,0.00,,SCT120,0.00,VWS V14.01,2013-01-08 07:12:00,
2013-01-08 03:17:00,72.1,63.8,30.03,SSW,192,0.0,0.0,75,0.00,,SCT120,0.00,VWS V14.01,2013-01-08 07:17:00,
2013-01-08 03:22:00,72.1,63.8,30.03,SSW,193,0.0,0.0,75,0.00,,SCT120,0.00,VWS V14.01,2013-01-08 07:22:00,
2013-01-08 03:27:00,72.1,63.4,30.03,SSW,192,0.0,0.0,74,0.00,,SCT120,0.00,VWS V14.01,2013-01-08 07:27:00,
2013-01-08 03:32:00,71.8,62.7,30.03,SSW,193,0.0,0.0,73,0.00,,SCT120,0.00,VWS V14.01,2013-01-08 07:32:00,
2013-01-08 03:37:00,71.6,62.9,30.03,SSW,192,0.0,0.0,74,0.00,,SCT120,0.00,VWS V14.01,2013-01-08 07:37:00,
2013-01-08 03:42:00,71.6,63.3,30.03,SSW,193,0.0,0.0,75,0.00,,SCT120,0.00,VWS V14.01,2013-01-08 07:42:00,
2013-01-08 03:47:00,71.6,63.3,30.03,SSW,193,0.0,0.0,75,0.00,,SCT120,0.00,VWS V14.01,2013-01-08 07:47:00,
2013-01-08 03:52:00,71.8,63.4,30.03,SSW,193,0.0,0.0,75,0.00,,SCT120,0.00,VWS V14.01,2013-01-08 07:52:00,
2013-01-08 03:57:00,72.0,64.0,30.03,SSW,192,0.0,0.0,76,0.00,,SCT120,0.00,VWS V14.01,2013-01-08 07:57:00,
2013-01-08 04:02:00,72.1,64.2,30.03,SSW,192,0.0,0.0,76,0.00,,SCT120,0.00,VWS V14.01,2013-01-08 08:02:00,
2013-01-08 04:07:00,72.1,64.2,30.03,SSW,193,0.0,0.0,76,0.00,,SCT120,0.00,VWS V14.01,2013-01-08 08:07:00,
2013-01-08 04:12:00,72.3,64.3,30.03,SSW,192,0.0,0.0,76,0.00,,SCT120,0.00,VWS V14.01,2013-01-08 08:12:00,
2013-01-08 04:17:00,72.1,63.8,30.03,SSW,192,0.0,0.0,75,0.00,,SCT120,0.00,VWS V14.01,2013-01-08 08:17:00,
2013-01-08 04:22:00,72.1,63.8,30.03,SSW,193,0.0,0.0,75,0.00,,SCT120,0.00,VWS V14.01,2013-01-08 08:22:00,
2013-01-08 04:27:00,72.1,63.8,30.03,SSW,193,0.0,0.0,75,0.00,,SCT120,0.00,VWS V14.01,2013-01-08 08:27:00,
2013-01-08 04:32:00,72.1,63.8,30.03,SSW,193,0.0,0.0,75,0.00,,SCT120,0.00,VWS V14.01,2013-01-08 08:32:00,
2013-01-08 04:37:00,72.1,63.8,30.03,SSW,193,0.0,0.0,75,0.00,,SCT120,0.00,VWS V14.01,2013-01-08 08:37:00,
2013-01-08 04:42:00,72.3,64.3,30.03,SSE,157,2.7,3.1,76,0.00,,SCT120,0.00,VWS V14.01,2013-01-08 08:42:00,
2013-01-08 04:47:00,72.5,64.5,30.03,SSE,157,0.0,3.1,76,0.00,,SCT120,0.00,VWS V14.01,2013-01-08 08:47:00,
2013-01-08 04:52:00,72.7,65.1,30.03,SE,133,0.0,4.0,77,0.00,,SCT120,0.00,VWS V14.01,2013-01-08 08:52:00,
2013-01-08 04:57:00,72.7,65.1,30.03,SE,135,0.0,4.0,77,0.00,,SCT120,0.00,VWS V14.01,2013-01-08 08:57:00,
2013-01-08 05:02:00,72.7,65.1,30.03,SE,135,0.0,0.0,77,0.00,,SCT120,0.00,VWS V14.01,2013-01-08 09:02:00,
2013-01-08 05:07:00,72.7,65.1,30.03,SE,135,0.0,0.0,77,0.00,,SCT120,0.00,VWS V14.01,2013-01-08 09:07:00,
2013-01-08 05:12:00,72.3,64.7,30.03,SE,135,0.0,0.0,77,0.00,,SCT120,0.00,VWS V14.01,2013-01-08 09:12:00,
2013-01-08 05:17:00,72.1,64.5,30.03,SE,135,0.0,0.0,77,0.00,,SCT120,0.00,VWS V14.01,2013-01-08 09:17:00,
2013-01-08 05:22:00,72.1,64.5,30.03,SE,136,0.0,0.0,77,0.00,,SCT120,0.00,VWS V14.01,2013-01-08 09:22:00,
2013-01-08 05:27:00,72.0,64.4,30.03,SE,135,0.0,0.0,77,0.00,,SCT120,0.00,VWS V14.01,2013-01-08 09:27:00,
2013-01-08 05:32:00,72.0,64.7,30.03,SE,135,0.0,0.0,78,0.00,,SCT120,0.00,VWS V14.01,2013-01-08 09:32:00,
2013-01-08 05:37:00,71.8,64.6,30.06,SE,135,0.0,0.0,78,0.00,,SCT120,0.00,VWS V14.01,2013-01-08 09:37:00,
2013-01-08 05:42:00,71.8,64.6,30.06,SE,135,0.0,0.0,78,0.00,,SCT120,0.00,VWS V14.01,2013-01-08 09:42:00,
2013-01-08 05:47:00,71.8,64.9,30.06,SE,135,0.0,0.0,79,0.00,,SCT120,0.00,VWS V14.01,2013-01-08 09:47:00,
2013-01-08 05:52:00,72.0,65.1,30.06,SE,136,0.0,0.0,79,0.00,,SCT120,0.00,VWS V14.01,2013-01-08 09:52:00,
2013-01-08 05:57:00,71.8,65.3,30.06,SE,136,0.0,0.0,80,0.00,,SCT120,0.00,VWS V14.01,2013-01-08 09:57:00,
2013-01-08 06:02:00,71.6,65.1,30.06,SE,136,0.0,0.0,80,0.00,,SCT120,0.00,VWS V14.01,2013-01-08 10:02:00,
2013-01-08 06:07:00,71.4,65.3,30.06,SE,136,0.0,0.0,81,0.00,,SCT120,0.00,VWS V14.01,2013-01-08 10:07:00,
2013-01-08 06:12:00,71.4,65.3,30.06,SE,135,0.0,0.0,81,0.00,,SCT120,0.00,VWS V14.01,2013-01-08 10:12:00,
2013-01-08 06:17:00,71.4,65.3,30.06,SSE,148,0.0,2.7,81,0.00,,SCT120,0.00,VWS V14.01,2013-01-08 10:17:00,
2013-01-08 06:22:00,71.6,65.5,30.06,SSE,149,0.0,0.0,81,0.00,,SCT120,0.00,VWS V14.01,2013-01-08 10:22:00,
2013-01-08 06:27:00,71.6,65.5,30.06,SSE,148,0.0,0.0,81,0.00,,SCT120,0.00,VWS V14.01,2013-01-08 10:27:00,
2013-01-08 06:32:00,71.6,65.5,30.06,SSE,149,0.0,0.0,81,0.00,,SCT120,0.00,VWS V14.01,2013-01-08 10:32:00,
2013-01-08 06:37:00,71.6,65.5,30.06,SSE,150,0.0,0.0,81,0.00,,SCT120,0.00,VWS V14.01,2013-01-08 10:37:00,
2013-01-08 06:42:00,71.6,65.8,30.06,SSE,149,0.0,0.0,82,0.00,,SCT120,0.00,VWS V14.01,2013-01-08 10:42:00,
2013-01-08 06:47:00,71.6,65.5,30.06,SSE,148,0.0,0.0,81,0.00,,SCT120,0.00,VWS V14.01,2013-01-08 10:47:00,
2013-01-08 06:52:00,71.4,65.6,30.06,SSE,149,0.0,0.0,82,0.00,,SCT120,0.00,VWS V14.01,2013-01-08 10:52:00,
2013-01-08 06:57:00,71.4,65.6,30.06,SSE,148,0.0,0.0,82,0.00,,SCT120,0.00,VWS V14.01,2013-01-08 10:57:00,
2013-01-08 07:02:00,71.4,65.6,30.06,ESE,112,0.0,0.0,82,0.00,,SCT120,0.00,VWS V14.01,2013-01-08 11:02:00,
2013-01-08 07:07:00,71.4,65.6,30.06,ESE,113,0.0,0.0,82,0.00,,SCT120,0.00,VWS V14.01,2013-01-08 11:07:00,
2013-01-08 07:12:00,71.6,66.2,30.06,NE,43,2.2,2.7,83,0.00,,SCT120,0.00,VWS V14.01,2013-01-08 11:12:00,
2013-01-08 07:17:00,72.0,67.2,30.06,ENE,71,5.4,6.7,85,0.00,,SCT120,0.00,VWS V14.01,2013-01-08 11:17:00,
2013-01-08 07:22:00,72.3,68.2,30.09,East,92,3.6,4.9,87,0.00,,SCT120,0.00,VWS V14.01,2013-01-08 11:22:00,
2013-01-08 07:27:00,72.7,68.9,30.09,East,93,0.0,4.9,88,0.00,,SCT120,0.00,VWS V14.01,2013-01-08 11:27:00,
2013-01-08 07:32:00,72.9,68.8,30.09,ESE,117,3.6,4.9,87,0.00,,SCT120,0.00,VWS V14.01,2013-01-08 11:32:00,
2013-01-08 07:37:00,73.0,68.9,30.09,SE,145,3.6,4.9,87,0.00,,SCT120,0.00,VWS V14.01,2013-01-08 11:37:00,
2013-01-08 07:42:00,73.0,68.9,30.09,ESE,106,2.2,3.1,87,0.00,,SCT120,0.00,VWS V14.01,2013-01-08 11:42:00,
2013-01-08 07:47:00,73.0,68.9,30.09,ESE,120,0.0,3.6,87,0.00,,SCT120,0.00,VWS V14.01,2013-01-08 11:47:00,
2013-01-08 07:52:00,73.2,69.1,30.09,East,98,2.7,3.6,87,0.00,,SCT120,0.00,VWS V14.01,2013-01-08 11:52:00,
2013-01-08 07:57:00,73.4,69.3,30.09,SE,125,0.0,4.9,87,0.00,,SCT120,0.00,VWS V14.01,2013-01-08 11:57:00,
2013-01-08 08:02:00,73.8,69.7,30.09,SE,132,4.0,4.0,87,0.00,,SCT120,0.00,VWS V14.01,2013-01-08 12:02:00,
2013-01-08 08:07:00,74.1,70.0,30.09,ESE,112,5.4,6.7,87,0.00,,SCT120,0.00,VWS V14.01,2013-01-08 12:07:00,
2013-01-08 08:12:00,74.5,70.4,30.09,ESE,106,3.1,6.7,87,0.00,,SCT120,0.00,VWS V14.01,2013-01-08 12:12:00,
2013-01-08 08:17:00,74.5,70.0,30.09,ESE,107,4.0,6.7,86,0.00,,SCT120,0.00,VWS V14.01,2013-01-08 12:17:00,
2013-01-08 08:22:00,74.8,70.0,30.12,SE,141,0.0,5.4,85,0.00,,SCT120,0.00,VWS V14.01,2013-01-08 12:22:00,
2013-01-08 08:27:00,75.2,70.0,30.12,ENE,65,4.0,5.4,84,0.00,,SCT120,0.00,VWS V14.01,2013-01-08 12:27:00,
2013-01-08 08:32:00,75.4,69.5,30.12,East,82,5.8,5.8,82,0.00,,SCT120,0.00,VWS V14.01,2013-01-08 12:32:00,
2013-01-08 08:37:00,75.7,69.1,30.12,ENE,63,2.7,6.3,80,0.00,,SCT120,0.00,VWS V14.01,2013-01-08 12:37:00,
2013-01-08 08:42:00,76.1,68.8,30.12,East,82,3.1,6.3,78,0.00,,SCT120,0.00,VWS V14.01,2013-01-08 12:42:00,
2013-01-08 08:47:00,76.3,67.0,30.12,NNE,29,5.4,8.7,73,0.00,,SCT120,0.00,VWS V14.01,2013-01-08 12:47:00,
2013-01-08 08:52:00,76.1,65.6,30.12,East,91,3.1,8.7,70,0.00,,SCT120,0.00,VWS V14.01,2013-01-08 12:52:00,
2013-01-08 08:57:00,76.1,65.6,30.12,SE,135,7.6,8.7,70,0.00,,SCT120,0.00,VWS V14.01,2013-01-08 12:57:00,
2013-01-08 09:02:00,76.1,65.6,30.12,ENE,78,2.2,4.9,70,0.00,,SCT120,0.00,VWS V14.01,2013-01-08 13:02:00,
2013-01-08 09:07:00,75.9,65.4,30.12,ESE,104,2.7,6.3,70,0.00,,SCT120,0.00,VWS V14.01,2013-01-08 13:07:00,
2013-01-08 09:12:00,75.9,65.8,30.12,ENE,57,3.6,8.7,71,0.00,,SCT120,0.00,VWS V14.01,2013-01-08 13:12:00,
2013-01-08 09:17:00,75.9,65.4,30.12,East,86,0.0,8.7,70,0.00,,SCT120,0.00,VWS V14.01,2013-01-08 13:17:00,
2013-01-08 09:22:00,75.9,65.8,30.12,ENE,73,4.0,8.1,71,0.00,,SCT120,0.00,VWS V14.01,2013-01-08 13:22:00,
2013-01-08 09:27:00,75.9,66.7,30.12,ESE,103,4.9,10.1,73,0.04,,SCT120,0.04,VWS V14.01,2013-01-08 13:27:00,
2013-01-08 09:32:00,75.6,66.7,30.12,ENE,74,5.4,11.0,74,0.04,,SCT120,0.04,VWS V14.01,2013-01-08 13:32:00,
2013-01-08 09:37:00,75.4,67.3,30.15,East,99,5.4,11.0,76,0.04,,SCT120,0.04,VWS V14.01,2013-01-08 13:37:00,
2013-01-08 09:42:00,75.0,67.3,30.15,SSE,153,8.1,11.4,77,0.04,,SCT120,0.04,VWS V14.01,2013-01-08 13:42:00,
2013-01-08 09:47:00,74.8,65.6,30.15,SE,132,4.0,11.4,73,0.04,,SCT120,0.04,VWS V14.01,2013-01-08 13:47:00,
2013-01-08 09:52:00,74.7,64.2,30.15,East,94,3.6,11.4,70,0.04,,SCT120,0.04,VWS V14.01,2013-01-08 13:52:00,
2013-01-08 09:57:00,74.8,64.4,30.15,ESE,110,3.1,11.4,70,0.04,,SCT120,0.04,VWS V14.01,2013-01-08 13:57:00,
2013-01-08 10:02:00,75.0,64.6,30.15,SE,136,5.8,6.3,70,0.04,,SCT120,0.04,VWS V14.01,2013-01-08 14:02:00,
2013-01-08 10:07:00,75.2,64.3,30.15,ESE,117,2.7,6.3,69,0.04,,SCT120,0.04,VWS V14.01,2013-01-08 14:07:00,
2013-01-08 10:12:00,75.6,64.7,30.15,East,90,3.6,6.3,69,0.04,,SCT120,0.04,VWS V14.01,2013-01-08 14:12:00,
2013-01-08 10:17:00,75.9,64.6,30.15,East,88,3.6,6.3,68,0.04,,SCT120,0.04,VWS V14.01,2013-01-08 14:17:00,
2013-01-08 10:22:00,76.3,64.1,30.12,East,100,3.1,5.8,66,0.04,,SCT120,0.04,VWS V14.01,2013-01-08 14:22:00,
2013-01-08 10:27:00,77.2,64.5,30.12,ESE,120,4.9,5.8,65,0.04,,SCT120,0.04,VWS V14.01,2013-01-08 14:27:00,
2013-01-08 10:32:00,78.1,64.9,30.12,SE,136,2.7,5.8,64,0.04,,SCT120,0.04,VWS V14.01,2013-01-08 14:32:00,
2013-01-08 10:37:00,78.6,64.1,30.12,NE,55,0.0,5.8,61,0.04,,SCT120,0.04,VWS V14.01,2013-01-08 14:37:00,
2013-01-08 10:42:00,78.8,61.3,30.12,ESE,112,6.3,8.3,55,0.00,,SCT120,0.04,VWS V14.01,2013-01-08 14:42:00,
2013-01-08 10:47:00,78.6,62.6,30.12,ESE,123,2.7,8.3,58,0.00,,SCT120,0.04,VWS V14.01,2013-01-08 14:47:00,
2013-01-08 10:52:00,78.3,61.8,30.12,SSE,166,3.1,10.5,57,0.00,,SCT120,0.04,VWS V14.01,2013-01-08 14:52:00,
2013-01-08 10:57:00,78.3,62.8,30.12,ESE,105,3.1,10.5,59,0.00,,SCT120,0.04,VWS V14.01,2013-01-08 14:57:00,
2013-01-08 11:02:00,78.4,62.5,30.12,ENE,61,2.7,7.6,58,0.00,,SCT120,0.04,VWS V14.01,2013-01-08 15:02:00,
2013-01-08 11:07:00,79.3,61.3,30.12,ESE,123,4.0,7.6,54,0.00,,SCT120,0.04,VWS V14.01,2013-01-08 15:07:00,
2013-01-08 11:12:00,80.4,63.3,30.12,SE,141,4.9,7.6,56,0.00,,SCT120,0.04,VWS V14.01,2013-01-08 15:12:00,
2013-01-08 11:17:00,80.8,60.4,30.12,East,92,4.0,10.1,50,0.00,,SCT120,0.04,VWS V14.01,2013-01-08 15:17:00,
2013-01-08 11:22:00,81.1,58.4,30.12,SE,143,8.3,10.5,46,0.00,,SCT120,0.04,VWS V14.01,2013-01-08 15:22:00,
2013-01-08 11:27:00,81.0,56.4,30.12,South,169,7.6,12.8,43,0.00,,SCT120,0.04,VWS V14.01,2013-01-08 15:27:00,
2013-01-08 11:32:00,80.8,55.6,30.12,ESE,104,9.2,12.8,42,0.00,,SCT120,0.04,VWS V14.01,2013-01-08 15:32:00,
2013-01-08 11:37:00,80.8,56.2,30.12,SE,145,8.3,12.8,43,0.00,,SCT120,0.04,VWS V14.01,2013-01-08 15:37:00,
2013-01-08 11:42:00,80.6,56.1,30.12,SE,143,5.4,12.8,43,0.00,,SCT120,0.04,VWS V14.01,2013-01-08 15:42:00,
2013-01-08 11:47:00,80.8,56.9,30.12,East,85,3.6,12.8,44,0.00,,SCT120,0.04,VWS V14.01,2013-01-08 15:47:00,
2013-01-08 11:52:00,80.8,55.6,30.12,SSE,162,5.4,12.8,42,0.00,,SCT120,0.04,VWS V14.01,2013-01-08 15:52:00,
2013-01-08 11:57:00,80.8,54.9,30.12,ESE,102,7.6,12.8,41,0.00,,SCT120,0.04,VWS V14.01,2013-01-08 15:57:00,
2013-01-08 12:02:00,81.0,54.4,30.12,East,98,10.1,12.8,40,0.00,,SCT120,0.04,VWS V14.01,2013-01-08 16:02:00,
2013-01-08 12:07:00,81.3,54.7,30.12,SE,139,12.8,12.8,40,0.00,,SCT120,0.04,VWS V14.01,2013-01-08 16:07:00,
2013-01-08 12:12:00,82.2,52.6,30.12,SE,135,7.6,12.8,36,0.00,,SCT120,0.04,VWS V14.01,2013-01-08 16:12:00,
2013-01-08 12:17:00,83.3,49.5,30.12,SE,127,7.6,12.8,31,0.00,,SCT120,0.04,VWS V14.01,2013-01-08 16:17:00,
2013-01-08 12:22:00,83.8,48.2,30.09,NNE,33,7.2,12.3,29,0.00,,SCT120,0.04,VWS V14.01,2013-01-08 16:22:00,
2013-01-08 12:27:00,84.2,48.5,30.09,ESE,118,5.4,12.3,29,0.00,,SCT120,0.04,VWS V14.01,2013-01-08 16:27:00,
2013-01-08 12:32:00,84.0,41.1,30.09,NE,52,8.1,16.3,22,0.00,,SCT120,0.04,VWS V14.01,2013-01-08 16:32:00,
2013-01-08 12:37:00,83.5,41.8,30.09,ESE,118,3.6,16.3,23,0.00,,SCT120,0.04,VWS V14.01,2013-01-08 16:37:00,
2013-01-08 12:42:00,83.3,41.7,30.09,ESE,122,4.0,11.9,23,0.00,,SCT120,0.04,VWS V14.01,2013-01-08 16:42:00,
2013-01-08 12:47:00,84.0,41.1,30.09,East,97,8.3,12.3,22,0.00,,SCT120,0.04,VWS V14.01,2013-01-08 16:47:00,
2013-01-08 12:52:00,84.2,41.3,30.09,NE,47,8.3,13.2,22,0.00,,SCT120,0.04,VWS V14.01,2013-01-08 16:52:00,
2013-01-08 12:57:00,84.0,43.4,30.09,ESE,111,8.7,13.2,24,0.00,,SCT120,0.04,VWS V14.01,2013-01-08 16:57:00,
2013-01-08 13:02:00,82.6,46.2,30.09,NE,53,7.6,10.5,28,0.00,,SCT120,0.04,VWS V14.01,2013-01-08 17:02:00,
2013-01-08 13:07:00,82.0,47.6,30.09,ESE,110,6.7,10.5,30,0.00,,SCT120,0.04,VWS V14.01,2013-01-08 17:07:00,
2013-01-08 13:12:00,81.0,53.7,30.09,East,86,10.1,15.0,39,0.00,,SCT120,0.04,VWS V14.01,2013-01-08 17:12:00,
2013-01-08 13:17:00,79.5,57.5,30.09,ESE,115,7.6,15.0,47,0.00,,SCT120,0.04,VWS V14.01,2013-01-08 17:17:00,
2013-01-08 13:22:00,79.2,62.6,30.09,ESE,104,4.9,5.8,57,0.00,,SCT120,0.04,VWS V14.01,2013-01-08 17:22:00,
2013-01-08 13:27:00,79.9,65.2,30.09,ESE,117,4.9,7.6,61,0.00,,SCT120,0.04,VWS V14.01,2013-01-08 17:27:00,
2013-01-08 13:32:00,80.6,62.4,30.09,ENE,72,4.0,8.7,54,0.00,,SCT120,0.04,VWS V14.01,2013-01-08 17:32:00,
2013-01-08 13:37:00,81.3,61.5,30.06,SE,125,4.0,8.7,51,0.00,,SCT120,0.04,VWS V14.01,2013-01-08 17:37:00,
2013-01-08 13:42:00,82.0,58.6,30.06,ESE,118,5.8,8.7,45,0.00,,SCT120,0.04,VWS V14.01,2013-01-08 17:42:00,
2013-01-08 13:47:00,82.4,53.5,30.06,ESE,106,5.8,8.7,37,0.00,,SCT120,0.04,VWS V14.01,2013-01-08 17:47:00,
2013-01-08 13:52:00,82.9,51.7,30.06,ESE,114,4.0,10.1,34,0.00,,SCT120,0.04,VWS V14.01,2013-01-08 17:52:00,
2013-01-08 13:57:00,82.6,50.6,30.06,East,100,8.1,10.1,33,0.00,,SCT120,0.04,VWS V14.01,2013-01-08 17:57:00,
2013-01-08 14:02:00,81.7,49.8,30.06,ENE,66,6.3,10.5,33,0.00,,SCT120,0.04,VWS V14.01,2013-01-08 18:02:00,
2013-01-08 14:07:00,81.1,49.3,30.06,ENE,61,2.7,10.5,33,0.00,,SCT120,0.04,VWS V14.01,2013-01-08 18:07:00,
2013-01-08 14:12:00,81.5,50.5,30.06,ESE,102,4.9,10.5,34,0.00,,SCT120,0.04,VWS V14.01,2013-01-08 18:12:00,
2013-01-08 14:17:00,82.4,50.4,30.06,ESE,113,11.9,11.9,33,0.00,,SCT120,0.04,VWS V14.01,2013-01-08 18:17:00,
2013-01-08 14:22:00,82.4,48.8,30.06,SE,129,5.8,11.0,31,0.00,,SCT120,0.04,VWS V14.01,2013-01-08 18:22:00,
2013-01-08 14:27:00,82.9,49.2,30.06,ESE,119,4.9,11.0,31,0.00,,SCT120,0.04,VWS V14.01,2013-01-08 18:27:00,
2013-01-08 14:32:00,83.5,48.8,30.06,East,84,7.6,11.0,30,0.00,,SCT120,0.04,VWS V14.01,2013-01-08 18:32:00,
2013-01-08 14:37:00,82.9,48.3,30.06,SE,136,10.1,11.0,30,0.00,,SCT120,0.04,VWS V14.01,2013-01-08 18:37:00,
2013-01-08 14:42:00,81.3,49.5,30.06,NE,47,5.4,10.5,33,0.00,,SCT120,0.04,VWS V14.01,2013-01-08 18:42:00,
2013-01-08 14:47:00,82.0,53.2,30.06,ESE,123,3.6,10.5,37,0.00,,SCT120,0.04,VWS V14.01,2013-01-08 18:47:00,
2013-01-08 14:52:00,82.8,51.6,30.06,East,100,7.6,11.0,34,0.00,,SCT120,0.04,VWS V14.01,2013-01-08 18:52:00,
2013-01-08 14:57:00,83.1,52.7,30.06,ESE,108,8.3,11.0,35,0.00,,SCT120,0.04,VWS V14.01,2013-01-08 18:57:00,
2013-01-08 15:02:00,83.7,53.1,30.06,East,81,5.4,8.3,35,0.00,,SCT120,0.04,VWS V14.01,2013-01-08 19:02:00,
2013-01-08 15:07:00,82.9,51.7,30.06,SE,141,5.8,11.0,34,0.00,,SCT120,0.04,VWS V14.01,2013-01-08 19:07:00,
2013-01-08 15:12:00,83.1,53.4,30.06,SE,138,4.9,11.0,36,0.00,,SCT120,0.04,VWS V14.01,2013-01-08 19:12:00,
2013-01-08 15:17:00,83.3,53.6,30.06,SE,144,7.6,11.0,36,0.00,,SCT120,0.04,VWS V14.01,2013-01-08 19:17:00,
2013-01-08 15:22:00,83.1,51.9,30.06,East,80,5.8,8.3,34,0.00,,SCT120,0.04,VWS V14.01,2013-01-08 19:22:00,
2013-01-08 15:27:00,82.6,54.4,30.06,NE,54,8.7,11.0,38,0.00,,SCT120,0.04,VWS V14.01,2013-01-08 19:27:00,
2013-01-08 15:32:00,81.1,55.2,30.06,SSE,151,12.8,12.8,41,0.00,,SCT120,0.04,VWS V14.01,2013-01-08 19:32:00,
2013-01-08 15:37:00,80.2,55.1,30.06,East,90,8.7,12.8,42,0.00,,SCT120,0.04,VWS V14.01,2013-01-08 19:37:00,
2013-01-08 15:42:00,80.2,55.1,30.06,ENE,76,6.3,11.0,42,0.00,,SCT120,0.04,VWS V14.01,2013-01-08 19:42:00,
2013-01-08 15:47:00,80.2,54.4,30.06,East,97,5.8,14.1,41,0.00,,SCT120,0.04,VWS V14.01,2013-01-08 19:47:00,
2013-01-08 15:52:00,80.2,54.4,30.06,ESE,119,7.6,14.1,41,0.00,,SCT120,0.04,VWS V14.01,2013-01-08 19:52:00,
2013-01-08 15:57:00,80.2,54.4,30.06,East,98,8.7,14.1,41,0.00,,SCT120,0.04,VWS V14.01,2013-01-08 19:57:00,
2013-01-08 16:02:00,80.8,54.2,30.06,ESE,122,4.0,8.3,40,0.00,,SCT120,0.04,VWS V14.01,2013-01-08 20:02:00,
2013-01-08 16:07:00,81.0,53.7,30.06,South,189,2.2,10.5,39,0.00,,SCT120,0.04,VWS V14.01,2013-01-08 20:07:00,
2013-01-08 16:12:00,80.8,54.2,30.06,East,88,6.3,11.4,40,0.00,,SCT120,0.04,VWS V14.01,2013-01-08 20:12:00,
2013-01-08 16:17:00,80.4,53.9,30.06,NNE,18,4.0,11.4,40,0.00,,SCT120,0.04,VWS V14.01,2013-01-08 20:17:00,
2013-01-08 16:22:00,80.2,53.8,30.06,East,84,4.5,8.3,40,0.00,,SCT120,0.04,VWS V14.01,2013-01-08 20:22:00,
2013-01-08 16:27:00,80.1,53.6,30.06,SSE,147,8.1,13.2,40,0.00,,SCT120,0.04,VWS V14.01,2013-01-08 20:27:00,
2013-01-08 16:32:00,80.1,53.6,30.06,ESE,116,5.8,13.2,40,0.00,,SCT120,0.04,VWS V14.01,2013-01-08 20:32:00,
2013-01-08 16:37:00,80.4,52.5,30.06,East,91,6.3,13.2,38,0.00,,SCT120,0.04,VWS V14.01,2013-01-08 20:37:00,
2013-01-08 16:42:00,80.4,52.5,30.06,ENE,57,4.0,10.5,38,0.00,,SCT120,0.04,VWS V14.01,2013-01-08 20:42:00,
2013-01-08 16:47:00,80.2,53.1,30.06,SE,134,3.1,10.5,39,0.00,,SCT120,0.04,VWS V14.01,2013-01-08 20:47:00,
2013-01-08 16:52:00,80.4,52.5,30.06,SE,141,4.9,10.5,38,0.00,,SCT120,0.04,VWS V14.01,2013-01-08 20:52:00,
2013-01-08 16:57:00,80.6,52.0,30.06,SSE,162,5.8,10.5,37,0.00,,SCT120,0.04,VWS V14.01,2013-01-08 20:57:00,
2013-01-08 17:02:00,80.8,52.1,30.06,ENE,62,5.4,5.4,37,0.00,,SCT120,0.04,VWS V14.01,2013-01-08 21:02:00,
2013-01-08 17:07:00,80.8,50.6,30.06,East,98,7.2,8.7,35,0.00,,SCT120,0.04,VWS V14.01,2013-01-08 21:07:00,
2013-01-08 17:12:00,80.6,50.5,30.06,SE,130,3.6,9.6,35,0.00,,SCT120,0.04,VWS V14.01,2013-01-08 21:12:00,
2013-01-08 17:17:00,80.6,50.5,30.06,East,95,3.6,9.6,35,0.00,,SCT120,0.04,VWS V14.01,2013-01-08 21:17:00,
2013-01-08 17:22:00,80.6,50.5,30.06,ENE,60,5.8,8.3,35,0.00,,SCT120,0.04,VWS V14.01,2013-01-08 21:22:00,
2013-01-08 17:27:00,80.8,53.5,30.06,SE,127,4.0,10.1,39,0.00,,SCT120,0.04,VWS V14.01,2013-01-08 21:27:00,
2013-01-08 17:32:00,80.2,55.1,30.06,ESE,106,10.5,13.2,42,0.00,,SCT120,0.04,VWS V14.01,2013-01-08 21:32:00,
2013-01-08 17:37:00,79.0,55.2,30.06,East,86,3.6,13.2,44,0.00,,SCT120,0.04,VWS V14.01,2013-01-08 21:37:00,
2013-01-08 17:42:00,78.3,57.0,30.06,ENE,76,4.9,8.7,48,0.00,,SCT120,0.04,VWS V14.01,2013-01-08 21:42:00,
2013-01-08 17:47:00,77.9,57.8,30.06,ESE,106,4.0,11.9,50,0.00,,SCT120,0.04,VWS V14.01,2013-01-08 21:47:00,
2013-01-08 17:52:00,77.7,57.6,30.06,NE,51,6.3,11.9,50,0.00,,SCT120,0.04,VWS V14.01,2013-01-08 21:52:00,
2013-01-08 17:57:00,77.5,56.3,30.06,SSE,158,3.1,11.9,48,0.00,,SCT120,0.04,VWS V14.01,2013-01-08 21:57:00,
2013-01-08 18:02:00,77.5,54.5,30.06,ESE,111,4.0,7.6,45,0.00,,SCT120,0.04,VWS V14.01,2013-01-08 22:02:00,
2013-01-08 18:07:00,77.5,53.9,30.09,ESE,115,3.6,7.6,44,0.00,,SCT120,0.04,VWS V14.01,2013-01-08 22:07:00,
2013-01-08 18:12:00,77.5,53.9,30.09,ESE,122,5.4,7.6,44,0.00,,SCT120,0.04,VWS V14.01,2013-01-08 22:12:00,
2013-01-08 18:17:00,77.5,53.9,30.09,ESE,119,2.2,7.6,44,0.00,,SCT120,0.04,VWS V14.01,2013-01-08 22:17:00,
2013-01-08 18:22:00,77.5,54.5,30.09,East,88,2.2,5.4,45,0.00,,SCT120,0.04,VWS V14.01,2013-01-08 22:22:00,
2013-01-08 18:27:00,77.5,54.5,30.09,ENE,78,3.6,5.4,45,0.00,,SCT120,0.04,VWS V14.01,2013-01-08 22:27:00,
2013-01-08 18:32:00,77.4,55.0,30.09,ESE,105,6.7,7.2,46,0.00,,SCT120,0.04,VWS V14.01,2013-01-08 22:32:00,
2013-01-08 18:37:00,77.4,55.6,30.09,East,96,2.2,8.1,47,0.00,,SCT120,0.04,VWS V14.01,2013-01-08 22:37:00,
2013-01-08 18:42:00,77.4,55.6,30.09,ESE,113,3.6,4.0,47,0.00,,SCT120,0.04,VWS V14.01,2013-01-08 22:42:00,
2013-01-08 18:47:00,77.5,56.3,30.09,SE,144,3.1,4.0,48,0.00,,SCT120,0.04,VWS V14.01,2013-01-08 22:47:00,
2013-01-08 18:52:00,77.5,56.3,30.09,ENE,67,0.0,5.8,48,0.00,,SCT120,0.04,VWS V14.01,2013-01-08 22:52:00,
2013-01-08 18:57:00,77.5,56.3,30.09,East,90,3.6,5.8,48,0.00,,SCT120,0.04,VWS V14.01,2013-01-08 22:57:00,
2013-01-08 19:02:00,77.5,56.9,30.09,East,100,3.1,4.9,49,0.00,,SCT120,0.04,VWS V14.01,2013-01-08 23:02:00,
2013-01-08 19:07:00,77.5,58.0,30.09,SE,131,3.1,5.4,51,0.00,,SCT120,0.04,VWS V14.01,2013-01-08 23:07:00,
2013-01-08 19:12:00,77.5,58.5,30.09,SSE,147,2.7,5.4,52,0.00,,SCT120,0.04,VWS V14.01,2013-01-08 23:12:00,
2013-01-08 19:17:00,77.4,60.0,30.09,SE,131,2.2,5.4,55,0.00,,SCT120,0.04,VWS V14.01,2013-01-08 23:17:00,
2013-01-08 19:22:00,77.4,61.9,30.09,ESE,112,2.7,5.4,59,0.00,,SCT120,0.04,VWS V14.01,2013-01-08 23:22:00,
2013-01-08 19:27:00,77.0,63.0,30.09,ESE,113,3.6,5.4,62,0.00,,SCT120,0.04,VWS V14.01,2013-01-08 23:27:00,
2013-01-08 19:32:00,76.8,64.2,30.09,ESE,114,3.1,5.4,65,0.00,,SCT120,0.04,VWS V14.01,2013-01-08 23:32:00,
2013-01-08 19:37:00,76.6,64.9,30.09,ESE,110,3.1,5.4,67,0.00,,SCT120,0.04,VWS V14.01,2013-01-08 23:37:00,
2013-01-08 19:42:00,76.6,64.9,30.09,East,100,0.0,4.9,67,0.00,,SCT120,0.04,VWS V14.01,2013-01-08 23:42:00,
2013-01-08 19:47:00,76.6,65.3,30.09,SE,135,3.6,4.9,68,0.00,,SCT120,0.04,VWS V14.01,2013-01-08 23:47:00,
2013-01-08 19:52:00,76.6,64.9,30.09,ESE,104,4.9,4.9,67,0.00,,SCT120,0.04,VWS V14.01,2013-01-08 23:52:00,
2013-01-08 19:57:00,76.6,64.9,30.09,ESE,115,3.1,4.9,67,0.00,,SCT120,0.04,VWS V14.01,2013-01-08 23:57:00,
2013-01-08 20:02:00,76.6,64.9,30.09,East,101,4.9,4.9,67,0.00,,SCT120,0.04,VWS V14.01,2013-01-09 00:02:00,
2013-01-08 20:07:00,76.5,63.8,30.09,East,95,3.6,6.3,65,0.00,,SCT120,0.04,VWS V14.01,2013-01-09 00:07:00,
2013-01-08 20:12:00,76.6,64.0,30.09,East,99,2.2,6.3,65,0.00,,SCT120,0.04,VWS V14.01,2013-01-09 00:12:00,
2013-01-08 20:17:00,76.6,64.0,30.09,ESE,118,3.6,6.3,65,0.00,,SCT120,0.04,VWS V14.01,2013-01-09 00:17:00,
2013-01-08 20:22:00,76.5,63.8,30.09,SE,138,3.6,4.0,65,0.00,,SCT120,0.04,VWS V14.01,2013-01-09 00:22:00,
2013-01-08 20:27:00,76.3,64.1,30.09,ESE,109,3.1,8.1,66,0.00,,SCT120,0.04,VWS V14.01,2013-01-09 00:27:00,
2013-01-08 20:32:00,76.3,64.1,30.09,ESE,106,2.7,8.1,66,0.00,,SCT120,0.04,VWS V14.01,2013-01-09 00:32:00,
2013-01-08 20:37:00,76.1,64.4,30.09,East,89,2.7,8.1,67,0.00,,SCT120,0.04,VWS V14.01,2013-01-09 00:37:00,
2013-01-08 20:42:00,76.1,64.4,30.09,ESE,121,4.0,5.4,67,0.00,,SCT120,0.04,VWS V14.01,2013-01-09 00:42:00,
2013-01-08 20:47:00,76.1,64.4,30.09,East,99,3.6,5.4,67,0.00,,SCT120,0.04,VWS V14.01,2013-01-09 00:47:00,
2013-01-08 20:52:00,76.1,64.4,30.09,SE,137,2.7,5.4,67,0.00,,SCT120,0.04,VWS V14.01,2013-01-09 00:52:00,
2013-01-08 20:57:00,75.9,64.2,30.09,ESE,102,2.2,5.4,67,0.00,,SCT120,0.04,VWS V14.01,2013-01-09 00:57:00,
2013-01-08 21:02:00,75.9,64.2,30.09,East,79,2.7,4.0,67,0.00,,SCT120,0.04,VWS V14.01,2013-01-09 01:02:00,
2013-01-08 21:07:00,75.7,64.4,30.12,ESE,105,2.7,4.0,68,0.00,,SCT120,0.04,VWS V14.01,2013-01-09 01:07:00,
2013-01-08 21:12:00,75.7,64.4,30.12,NNW,343,0.0,6.3,68,0.00,,SCT120,0.04,VWS V14.01,2013-01-09 01:12:00,
2013-01-08 21:17:00,75.9,64.6,30.12,ESE,113,3.1,6.3,68,0.00,,SCT120,0.04,VWS V14.01,2013-01-09 01:17:00,
2013-01-08 21:22:00,75.9,65.0,30.12,East,99,2.7,5.4,69,0.00,,SCT120,0.04,VWS V14.01,2013-01-09 01:22:00,
2013-01-08 21:27:00,75.7,64.9,30.12,ENE,70,5.8,6.3,69,0.00,,SCT120,0.04,VWS V14.01,2013-01-09 01:27:00,
2013-01-08 21:32:00,75.6,65.1,30.12,ESE,121,6.3,8.7,70,0.00,,SCT120,0.04,VWS V14.01,2013-01-09 01:32:00,
2013-01-08 21:37:00,75.6,65.1,30.12,East,96,3.1,8.7,70,0.00,,SCT120,0.04,VWS V14.01,2013-01-09 01:37:00,
2013-01-08 21:42:00,75.4,65.3,30.12,East,101,2.7,6.3,71,0.00,,SCT120,0.04,VWS V14.01,2013-01-09 01:42:00,
2013-01-08 21:47:00,75.2,65.2,30.12,East,101,0.0,6.3,71,0.00,,SCT120,0.04,VWS V14.01,2013-01-09 01:47:00,
2013-01-08 21:52:00,75.2,65.6,30.12,SSE,157,0.0,6.3,72,0.00,,SCT120,0.04,VWS V14.01,2013-01-09 01:52:00,
2013-01-08 21:57:00,75.0,65.4,30.12,East,98,0.0,6.3,72,0.00,,SCT120,0.04,VWS V14.01,2013-01-09 01:57:00,
2013-01-08 22:02:00,75.0,65.8,30.12,SSE,154,2.7,4.0,73,0.00,,SCT120,0.04,VWS V14.01,2013-01-09 02:02:00,
2013-01-08 22:07:00,74.8,66.0,30.12,SE,124,0.0,4.0,74,0.00,,SCT120,0.04,VWS V14.01,2013-01-09 02:07:00,
2013-01-08 22:13:00,74.8,66.0,30.12,ESE,108,0.0,4.0,74,0.00,,SCT120,0.04,VWS V14.01,2013-01-09 02:13:00,
2013-01-08 22:18:00,74.7,66.2,30.12,East,84,0.0,4.0,75,0.00,,SCT120,0.04,VWS V14.01,2013-01-09 02:18:00,
2013-01-08 22:23:00,74.7,66.2,30.12,East,91,2.7,4.0,75,0.00,,SCT120,0.04,VWS V14.01,2013-01-09 02:23:00,
2013-01-08 22:28:00,74.7,66.6,30.12,NNE,14,0.0,4.0,76,0.00,,SCT120,0.04,VWS V14.01,2013-01-09 02:28:00,
2013-01-08 22:33:00,74.7,66.6,30.12,ESE,109,2.2,5.4,76,0.00,,SCT120,0.04,VWS V14.01,2013-01-09 02:33:00,
2013-01-08 22:38:00,74.7,66.6,30.12,SSE,157,3.1,5.4,76,0.00,,SCT120,0.04,VWS V14.01,2013-01-09 02:38:00,
2013-01-08 22:43:00,74.7,66.6,30.12,ENE,73,2.2,4.9,76,0.00,,SCT120,0.04,VWS V14.01,2013-01-09 02:43:00,
2013-01-08 22:48:00,74.5,66.4,30.12,East,91,5.4,5.4,76,0.00,,SCT120,0.04,VWS V14.01,2013-01-09 02:48:00,
2013-01-08 22:53:00,74.7,66.6,30.12,ESE,104,0.0,5.4,76,0.00,,SCT120,0.04,VWS V14.01,2013-01-09 02:53:00,
2013-01-08 22:58:00,74.7,66.6,30.12,East,97,2.7,5.4,76,0.00,,SCT120,0.04,VWS V14.01,2013-01-09 02:58:00,
2013-01-08 23:03:00,74.7,66.6,30.12,East,83,3.1,4.0,76,0.00,,SCT120,0.04,VWS V14.01,2013-01-09 03:03:00,
2013-01-08 23:08:00,74.7,66.2,30.12,ESE,109,2.7,4.0,75,0.08,,SCT120,0.12,VWS V14.01,2013-01-09 03:08:00,
2013-01-08 23:13:00,74.5,66.4,30.12,ENE,78,2.7,4.0,76,0.08,,SCT120,0.12,VWS V14.01,2013-01-09 03:13:00,
2013-01-08 23:18:00,74.5,66.4,30.12,ENE,66,2.7,5.4,76,0.08,,SCT120,0.12,VWS V14.01,2013-01-09 03:18:00,
2013-01-08 23:23:00,74.3,66.6,30.12,East,85,2.7,3.1,77,0.08,,SCT120,0.12,VWS V14.01,2013-01-09 03:23:00,
2013-01-08 23:28:00,74.3,66.6,30.12,East,94,0.0,4.0,77,0.08,,SCT120,0.12,VWS V14.01,2013-01-09 03:28:00,
2013-01-08 23:33:00,74.3,66.6,30.12,East,81,2.7,5.8,77,0.08,,SCT120,0.12,VWS V14.01,2013-01-09 03:33:00,
2013-01-08 23:38:00,74.3,66.6,30.12,ENE,58,2.7,5.8,77,0.08,,SCT120,0.12,VWS V14.01,2013-01-09 03:38:00,
2013-01-08 23:43:00,74.3,66.2,30.12,ESE,107,4.0,4.9,76,0.08,,SCT120,0.12,VWS V14.01,2013-01-09 03:43:00,
2013-01-08 23:48:00,74.3,66.2,30.12,SE,124,2.2,5.4,76,0.08,,SCT120,0.12,VWS V14.01,2013-01-09 03:48:00,
2013-01-08 23:53:00,74.3,66.2,30.12,SE,133,3.1,5.4,76,0.08,,SCT120,0.12,VWS V14.01,2013-01-09 03:53:00,
2013-01-08 23:58:00,74.3,66.2,30.12,ESE,112,3.1,5.8,76,0.08,,SCT120,0.12,VWS V14.01,2013-01-09 03:58:00,